Temperature
6 5 5 5 5 5 5 4 4 4 4 5 5 5 4 5 5 5 5 4 4 4 4 4 4 3 3 3 3 3 3 3 3 3 3 3 3 3
5 5 5 5 5 4 4 4 4 4 3 4 4 4 4 4 4 4 4 4 4 4 4 3 3 3 3 3 3 2 3 3 2 2 2 2 2 2
5 5 4 4 4 4 4 4 4 3 3 3 4 4 4 4 4 4 4 4 3 3 3 3 3 3 3 2 2 2 2 2 2 2 2 2 2 2
4 4 4 4 3 3 3 3 3 3 3 3 3 3 3 3 3 3 3 3 3 3 3 3 3 3 2 2 2 2 2 2 2 2 1 2 2 2
4 4 3 3 3 3 3 3 3 3 3 2 2 2 3 3 3 3 3 3 3 2 2 2 2 2 2 2 2 2 1 1 1 1 1 1 1 1
3 3 3 3 3 2 2 2 2 2 2 2 2 2 2 2 2 2 2 2 2 2 2 2 2 2 2 1 1 1 1 1 1 1 1 1 1 1
2 2 2 2 2 2 2 2 2 2 2 1 1 1 2 2 2 2 1 1 1 1 1 1 1 1 1 1 1 0 0 0 0 0 0 0 0 0
2 2 2 2 2 2 2 2 2 2 1 1 1 1 1 1 1 1 1 1 0 1 0 0 0 0 0 0 0 -0 -0 -0 -0 -0 -0 -0 -0 -0
1 1 1 1 1 1 1 1 1 1 1 1 1 1 1 1 1 0 0 0 -0 0 0 0 -0 -0 -0 -0 -0 -0 -0 -0 -0 -0 -0 -0 -0 -1
1 1 1 1 1 1 1 1 1 1 1 0 0 1 0 0 0 -0 -0 -0 -0 -0 -0 -1 -0 -0 -0 -1 -1 -1 -1 -1 -1 -1 -1 -1 -1 -1
0 0 0 0 0 0 0 0 0 0 0 0 0 0 0 0 -0 -0 -0 -1 -1 -1 -1 -1 -1 -1 -0 -0 -1 -1 -1 -1 -1 -1 -1 -1 -1 -1
-0 -0 -0 -0 -0 -0 -0 -0 -0 -0 -0 -0 -0 -0 -0 -0 -0 -0 -1 -1 -1 -1 -1 -1 -1 -2 -2 -1 -1 -1 -1 -1 -1 -1 -1 -2 -2 -2
-1 -1 -1 -1 -1 -1 -1 -1 -1 -0 -0 -0 -0 -1 -1 -1 -1 -1 -1 -1 -1 -1 -1 -2 -2 -2 -2 -2 -2 -2 -2 -2 -2 -2 -2 -2 -2 -2
-1 -1 -1 -1 -1 -1 -1 -1 -1 -1 -1 -1 -1 -1 -1 -1 -1 -1 -1 -1 -1 -1 -1 -2 -2 -2 -3 -3 -3 -2 -2 -2 -2 -2 -2 -2 -2 -2
-1 -1 -1 -1 -1 -1 -1 -1 -1 -1 -1 -1 -1 -1 -1 -1 -1 -1 -1 -1 -1 -1 -2 -2 -2 -2 -3 -3 -3 -3 -2 -2 -2 -3 -3 -3 -3 -3
-2 -2 -2 -2 -2 -2 -2 -2 -2 -2 -2 -2 -2 -2 -2 -2 -1 -1 -1 -2 -1 -1 -2 -2 -2 -2 -3 -3 -3 -3 -3 -3 -3 -3 -3 -3 -3 -3
-2 -2 -2 -2 -2 -2 -2 -2 -2 -2 -2 -2 -2 -2 -2 -2 -2 -2 -2 -2 -2 -2 -2 -2 -2 -2 -2 -3 -3 -3 -3 -3 -3 -3 -3 -3 -3 -3
-3 -3 -3 -3 -3 -3 -2 -2 -2 -3 -2 -2 -2 -2 -2 -2 -2 -2 -2 -2 -3 -3 -3 -2 -2 -2 -3 -3 -3 -3 -3 -3 -3 -3 -4 -4 -4 -4
-3 -3 -3 -3 -3 -3 -3 -3 -3 -3 -3 -3 -3 -3 -3 -3 -3 -3 -3 -3 -3 -3 -3 -3 -3 -3 -4 -4 -3 -3 -3 -3 -4 -4 -4 -4 -4 -4
-4 -4 -4 -4 -4 -4 -3 -3 -3 -3 -3 -3 -3 -3 -3 -3 -3 -3 -3 -3 -3 -3 -3 -3 -3 -3 -3 -4 -4 -3 -3 -4 -4 -4 -4 -4 -4 -4
-4 -4 -4 -4 -4 -4 -4 -4 -4 -4 -4 -3 -3 -3 -3 -3 -3 -3 -3 -3 -3 -3 -3 -3 -3 -3 -4 -4 -4 -4 -3 -4 -4 -4 -4 -4 -4 -4
-5 -4 -4 -4 -4 -4 -4 -4 -4 -4 -4 -4 -3 -3 -3 -3 -3 -3 -3 -4 -4 -3 -3 -3 -3 -4 -4 -4 -4 -4 -4 -4 -4 -4 -4 -4 -4 -4
-5 -5 -5 -5 -5 -5 -4 -4 -4 -4 -4 -4 -4 -4 -3 -3 -4 -4 -3 -3 -3 -3 -3 -3 -3 -4 -4 -4 -4 -4 -4 -4 -4 -4 -4 -4 -4 -4
Wind_Speed
4 4 4 3 4 4 4 4 4 5 5 4 3 3 5 6 7 8 8 9 10 10 10 10 11 11 12 13 14 15 15 16 16 17 17 17 17 18
4 4 4 3 3 3 4 4 4 5 5 3 4 4 5 5 7 8 8 8 9 9 9 10 10 11 12 13 14 14 15 15 15 16 16 16 17 18
4 4 4 4 3 3 3 3 4 5 6 5 4 5 6 6 6 6 7 6 7 8 9 10 10 11 12 12 13 14 14 15 15 16 16 16 17 17
5 4 4 3 4 3 3 4 4 5 5 6 5 5 6 6 6 6 5 6 6 7 9 10 11 11 11 12 13 13 14 14 14 15 15 15 16 16
4 4 4 4 4 3 3 4 4 4 4 4 5 4 5 5 6 5 5 5 6 7 8 9 9 10 11 11 12 13 13 14 14 14 15 15 16 16
4 4 4 5 5 4 4 4 4 4 3 4 4 4 4 4 5 5 5 5 5 6 7 7 8 9 10 11 12 12 13 13 14 15 15 15 15 16
3 3 3 4 4 4 3 3 3 3 3 3 4 4 4 4 4 4 5 5 5 5 6 6 6 6 7 9 10 12 13 14 15 15 15 15 15 15
3 2 2 2 2 3 3 3 3 3 3 3 3 4 4 4 4 4 5 5 4 4 6 6 6 6 6 7 11 13 14 14 14 14 15 15 15 15
3 3 2 2 2 2 2 2 2 3 3 4 4 4 4 5 4 4 4 5 5 5 6 6 6 6 6 7 11 13 14 14 14 15 15 15 15 15
3 3 3 2 2 2 1 2 2 2 3 3 3 3 4 4 4 4 5 5 5 4 4 4 6 6 7 7 9 11 13 14 15 15 16 16 15 15
2 2 3 2 3 2 2 2 2 2 2 3 3 3 4 4 4 2 3 3 4 4 4 3 4 7 6 5 7 10 12 13 14 15 16 17 16 15
1 1 2 3 3 3 2 2 2 2 2 2 3 3 3 2 3 2 2 3 3 3 3 3 4 5 4 4 6 8 9 11 13 14 15 16 17 12
1 1 1 2 3 3 3 2 3 2 2 1 2 2 2 2 3 3 3 3 3 3 3 3 3 4 3 4 6 7 8 8 9 10 11 14 15 13
2 1 1 2 2 2 2 1 1 1 1 1 1 1 2 2 3 4 4 4 4 4 5 4 3 4 4 5 5 6 8 8 8 7 8 11 12 13
1 1 1 2 1 0 0 1 0 0 0 1 1 2 2 2 3 3 4 4 4 4 3 4 4 4 4 4 5 6 6 6 7 7 7 8 8 9
1 1 1 1 1 1 1 1 1 1 1 1 1 2 2 2 2 3 3 4 3 4 5 5 4 4 4 5 5 5 6 5 6 7 7 7 7 8
1 1 0 1 0 1 1 1 1 1 1 1 1 2 2 2 3 3 3 3 3 4 5 5 5 4 4 4 4 4 5 5 6 6 6 6 7 7
1 1 1 1 0 0 1 1 1 1 1 1 1 1 2 2 2 3 3 3 3 4 4 4 5 4 3 2 2 4 5 5 6 7 6 6 7 7
1 0 0 1 1 1 1 1 1 2 2 1 2 2 2 2 2 2 3 3 3 4 4 4 4 4 4 4 3 3 5 5 6 6 6 5 6 7
0 0 0 1 1 1 1 1 1 2 2 2 2 2 2 2 2 2 2 3 3 3 4 4 4 4 3 3 3 4 6 5 5 5 6 6 5 6
0 0 1 1 1 1 1 1 1 2 2 2 2 2 2 2 2 2 2 3 3 3 3 4 5 6 4 2 3 4 5 6 6 5 6 5 5 5
0 0 1 1 1 1 1 2 2 2 2 2 2 2 2 2 2 3 2 3 3 3 4 4 4 4 3 3 3 4 5 6 6 6 6 5 4 4
0 1 1 1 1 1 1 2 2 2 2 2 2 2 2 2 2 2 2 2 3 3 3 3 3 3 3 3 3 4 5 6 5 5 6 8 8 7
Wind_Direction
226 232 243 251 246 246 252 253 258 274 275 267 277 287 300 297 299 289 288 290 290 295 300 304 309 314 315 317 317 317 317 317 316 314 314 314 315 314
227 230 239 249 258 251 251 256 257 263 272 283 288 302 309 305 310 303 293 288 283 292 299 303 309 314 315 317 317 318 319 319 318 317 316 315 316 316
222 224 234 244 254 258 254 256 255 256 265 283 293 306 308 310 318 311 308 298 292 294 300 303 309 313 315 317 320 321 320 321 321 319 318 318 317 317
233 228 232 236 244 254 254 257 260 260 264 280 296 307 309 312 316 314 319 316 313 312 307 305 307 312 317 320 322 325 326 324 321 321 321 320 320 321
239 239 235 234 243 254 261 265 267 269 269 276 292 305 309 318 315 319 325 324 324 323 319 316 317 316 320 323 327 329 329 329 327 327 326 324 324 323
242 247 250 241 244 254 258 266 276 270 269 272 287 301 313 322 317 324 327 329 330 329 326 326 330 328 329 329 332 333 333 333 333 333 331 329 327 326
238 248 259 254 252 255 259 268 270 272 271 274 287 307 318 327 321 324 319 324 325 331 328 329 332 331 333 337 339 338 336 337 336 336 337 337 335 329
225 233 246 263 268 263 276 287 284 272 275 278 285 292 304 312 317 320 320 324 322 333 328 325 330 329 336 342 344 342 341 340 340 340 340 339 339 336
221 223 238 248 271 257 260 282 304 316 297 282 281 291 299 307 311 313 315 315 310 320 323 316 327 330 335 340 341 340 342 345 345 343 342 341 339 337
225 220 226 240 255 278 270 282 301 311 311 299 288 297 306 312 302 300 307 315 321 323 327 311 326 330 329 331 342 343 345 348 350 351 351 347 341 337
233 225 223 233 246 264 267 266 294 317 330 320 327 328 327 330 333 326 328 325 323 325 341 327 326 327 321 326 343 346 346 348 350 352 353 353 350 345
227 234 233 241 245 255 267 263 265 294 313 325 335 340 338 348 348 332 316 311 318 317 346 337 325 334 324 322 335 341 343 345 348 351 352 354 353 350
236 249 261 264 264 253 268 278 278 283 281 295 308 326 337 345 338 336 328 302 297 297 312 324 317 324 312 311 320 333 340 342 344 347 351 352 353 353
250 258 266 271 276 278 279 294 294 282 264 291 309 321 328 336 335 332 329 317 301 289 291 300 297 306 311 311 313 325 332 338 342 343 346 347 350 351
261 262 268 259 245 254 349 15 343 299 258 283 307 321 321 325 336 340 344 344 339 325 309 306 299 296 301 300 307 315 324 329 337 340 342 346 348 347
260 237 217 186 102 94 99 51 1 330 296 297 307 325 333 339 344 346 342 343 345 345 349 343 327 309 303 301 299 309 322 323 329 335 335 340 348 352
217 216 174 138 85 47 36 25 5 341 332 332 322 336 340 340 344 344 342 338 340 339 342 347 346 331 305 297 310 317 322 324 326 331 333 338 346 353
182 190 193 200 212 286 342 348 341 322 316 316 313 326 334 333 338 339 338 337 339 338 339 341 342 340 335 336 315 313 325 328 329 331 334 334 341 347
151 170 216 244 257 271 300 319 314 309 304 301 311 321 328 327 327 328 331 338 341 338 335 335 337 342 338 335 337 349 332 326 329 334 339 336 332 334
69 162 274 292 299 290 286 302 313 311 305 303 306 312 320 317 316 320 323 329 331 332 332 332 335 334 320 310 308 318 331 327 327 332 334 331 328 323
49 359 328 314 310 300 299 299 296 295 298 302 303 307 315 315 309 311 314 320 323 324 324 324 327 327 319 313 321 328 334 341 336 330 332 329 328 336
348 304 313 315 305 298 292 290 294 301 299 296 301 300 307 306 303 303 307 311 314 319 323 326 331 339 344 346 342 336 339 343 349 350 348 341 328 334
277 292 297 301 300 291 288 286 291 299 303 299 298 296 297 301 301 299 302 309 317 328 336 339 345 352 351 348 348 346 348 349 350 353 356 359 356 345
Height
1485 1485 1485 1485 1484 1484 1483 1482 1481 1477 1474 1473 1471 1470 1468 1467 1465 1464 1462 1461 1459 1458 1456 1454 1452 1449 1447 1444 1441 1438 1435 1432 1429 1426 1423 1420 1416 1413
1481 1481 1481 1481 1480 1480 1479 1478 1477 1476 1472 1469 1468 1466 1464 1463 1461 1460 1458 1456 1455 1454 1452 1450 1448 1445 1443 1440 1437 1434 1430 1427 1424 1421 1418 1415 1412 1409
1477 1477 1477 1477 1476 1476 1475 1474 1473 1471 1469 1466 1465 1463 1461 1460 1457 1456 1454 1453 1451 1450 1448 1446 1444 1441 1439 1436 1433 1430 1426 1423 1420 1417 1414 1411 1408 1405
1474 1473 1473 1473 1472 1472 1471 1470 1469 1467 1466 1463 1462 1460 1458 1457 1455 1453 1451 1449 1447 1446 1444 1442 1440 1437 1435 1432 1429 1426 1423 1419 1416 1413 1410 1407 1404 1401
1470 1469 1469 1468 1468 1468 1467 1466 1465 1464 1462 1461 1459 1457 1456 1454 1452 1450 1448 1446 1443 1442 1440 1438 1436 1433 1431 1428 1425 1422 1419 1416 1413 1410 1407 1404 1401 1398
1466 1465 1465 1465 1464 1464 1463 1462 1461 1460 1459 1457 1456 1454 1453 1451 1450 1447 1444 1442 1440 1439 1437 1435 1432 1430 1427 1424 1421 1418 1415 1413 1410 1406 1403 1400 1397 1394
1461 1461 1461 1461 1460 1460 1459 1458 1458 1457 1455 1454 1453 1451 1450 1448 1447 1444 1442 1440 1437 1436 1434 1431 1429 1426 1424 1421 1418 1415 1413 1410 1407 1403 1400 1397 1394 1391
1457 1457 1457 1456 1456 1456 1456 1455 1454 1453 1452 1451 1450 1448 1447 1446 1444 1442 1440 1438 1435 1434 1431 1429 1426 1424 1421 1418 1416 1413 1410 1407 1404 1401 1398 1394 1391 1388
1454 1454 1454 1453 1453 1453 1452 1452 1451 1450 1450 1449 1447 1446 1445 1444 1442 1440 1438 1436 1434 1432 1429 1426 1424 1421 1419 1417 1414 1411 1408 1405 1402 1398 1395 1392 1388 1385
1450 1450 1450 1450 1450 1450 1449 1449 1448 1447 1447 1446 1445 1444 1443 1442 1440 1439 1437 1435 1433 1431 1428 1425 1422 1420 1417 1415 1413 1410 1406 1403 1400 1396 1393 1390 1386 1383
1447 1447 1447 1447 1447 1446 1446 1445 1444 1444 1444 1443 1443 1442 1441 1439 1438 1437 1435 1433 1430 1429 1427 1424 1421 1418 1416 1414 1411 1408 1405 1401 1398 1394 1391 1388 1384 1381
1444 1444 1444 1444 1443 1443 1443 1442 1441 1441 1441 1441 1440 1439 1438 1437 1436 1435 1433 1431 1429 1427 1425 1423 1420 1418 1414 1412 1410 1407 1403 1400 1397 1394 1390 1387 1383 1379
1441 1441 1441 1441 1440 1440 1440 1440 1439 1439 1439 1438 1437 1437 1436 1434 1433 1432 1431 1430 1428 1426 1425 1422 1420 1417 1415 1411 1408 1405 1402 1399 1396 1393 1389 1386 1382 1378
1439 1439 1438 1438 1438 1438 1437 1437 1437 1437 1436 1436 1435 1434 1433 1432 1431 1430 1429 1428 1427 1425 1423 1421 1419 1417 1414 1410 1407 1404 1402 1399 1395 1392 1389 1385 1381 1378
1436 1436 1436 1436 1436 1435 1435 1435 1435 1434 1434 1433 1432 1432 1431 1430 1429 1428 1426 1425 1424 1423 1421 1420 1418 1416 1413 1411 1407 1404 1400 1398 1395 1392 1388 1385 1381 1377
1435 1434 1434 1434 1434 1434 1434 1433 1433 1433 1432 1432 1431 1430 1429 1428 1427 1426 1425 1423 1421 1420 1419 1418 1416 1414 1412 1409 1407 1403 1401 1398 1395 1392 1388 1385 1381 1378
1433 1433 1433 1432 1432 1432 1432 1432 1431 1431 1431 1430 1429 1428 1427 1427 1426 1425 1423 1422 1420 1419 1417 1416 1414 1413 1411 1409 1406 1403 1400 1398 1395 1392 1388 1384 1381 1378
1432 1431 1431 1431 1431 1430 1430 1430 1430 1430 1430 1429 1428 1427 1426 1425 1425 1424 1422 1421 1419 1418 1416 1414 1412 1410 1410 1408 1406 1403 1400 1398 1395 1392 1388 1385 1381 1378
1430 1430 1430 1430 1429 1429 1429 1429 1429 1429 1429 1428 1427 1426 1425 1424 1424 1423 1421 1420 1418 1417 1416 1414 1412 1410 1408 1406 1405 1403 1400 1397 1394 1391 1389 1385 1382 1378
1429 1429 1429 1429 1428 1428 1428 1428 1428 1428 1428 1427 1426 1425 1424 1424 1423 1422 1421 1419 1418 1416 1415 1413 1411 1410 1408 1406 1404 1402 1400 1398 1395 1392 1389 1385 1382 1379
1428 1428 1428 1428 1427 1427 1427 1427 1427 1427 1426 1426 1425 1424 1423 1423 1422 1421 1420 1418 1417 1415 1413 1412 1411 1410 1408 1406 1404 1402 1400 1398 1396 1393 1389 1386 1382 1379
1427 1427 1427 1427 1427 1426 1426 1426 1426 1426 1425 1425 1424 1423 1423 1422 1421 1420 1419 1418 1416 1415 1413 1412 1410 1409 1407 1406 1404 1402 1400 1398 1396 1394 1391 1388 1385 1381
1426 1426 1426 1426 1426 1426 1425 1425 1425 1424 1424 1423 1422 1422 1421 1421 1420 1419 1418 1417 1415 1414 1412 1411 1410 1409 1407 1406 1404 1402 1400 1398 1396 1394 1392 1389 1386 1383